Airfield :
LOGIN :

Register | Disclaimer

   EN    FR    IT 

 










Legend :    VFR   Marginal VFR   IFR   Intensive IFR   Very Intensive IFR
Visi :
Ceiling :
>= 8 km
>= 3000ft
5 to 8 km
1000 to 3000 ft
1500m to 5 km
500 to 1000 ft
800 to 1500m
200 to 500 ft
< 800m
< 200 ft
Symbols :   Thunderstorms  Fog  Heavy snow  Heavy precipitations  Wind > 20 kt
SIGMETs :     Misc.  Thunderstorms  Icing  Turbulence  Mountain Waves  Volcanic Ashes







- Airport Elevation : 80 ft
- IATA code : LPL
- Download approach charts


EGGP - Liverpool John Lennon

CURRENT METAR :
  • 270350Z 27017KT CAVOK 12/08 Q1008

EXPIRED METARs :
  • 270320Z 26015KT CAVOK 12/08 Q1009
  • 270250Z 26015KT CAVOK 12/08 Q1009
  • 270220Z 27016KT CAVOK 12/09 Q1009
  • 270150Z 26013KT CAVOK 12/09 Q1009
  • 270120Z 27013KT CAVOK 13/09 Q1009

TAF TAF EGGP
Valid from the 27 at 00:00 until the 28 at 00:00 UTC


262254Z 2700/2724 28010KT 9999 SCT030
BECMG 2701/2704 28015G25KT
TEMPO 2706/2718 6000 SHRA
BECMG 2712/2716 28010KT
PROB30
TEMPO 2712/2718 4000 +SHRA
TEMPO 2718/2724 8000 -SHRA
ATIS : +44 151 907 2000 (option 5 or ext 5150)
Met : +44 871 750 5150
No reported NOTAMs for that airfield.



MET'MAP, your aeronautical weather chart ! - Copyright ORBIFLY December 2007 - Disclaimer

ORBIFLY MET'MAP TEAM :

Programming & Development : Alexandra Zaïnal
Concept & Development : Baudouin d'Aumeries
Co-Development & Prog : Marc-Olivier Méhu
Technical & hardware support : Manuel Goepfert

Contact : metmap@orbifly.com




SOURCES & CREDITS :

   NOAA